Miscellaneous Local Product
Issued by NWS North Platte, NE

Home | Current Version | Previous Version | Text Only | Print | Product List | Glossary On
Versions: 1 2 3 4 5 6 7 8 9 10 11 12 13 14 15 16 17 18 19 20 21 22 23 24 25 26 27 28 29 30 31 32 33 34 35 36 37 38 39 40 41 42 43 44 45 46 47 48 49 50
000
AXUS43 KLBF 022010
MISLBF


WESTERN AND NORTH CENTRAL NEBRASKA HOURLY WEATHER ROUNDUP
NATIONAL WEATHER SERVICE NORTH PLATTE NE
300 PM CDT SUN AUG 02 2015

***STATIONS NOT REPORTING VARIABLES SUCH AS SKY/WEATHER OR
PRESSURE ARE PROVIDED BY THE NEBRASKA DEPARTMENT OF
ROADS...RAWS...AND APRS NETWORKS...AND ARE NOT UNDER
NATIONAL WEATHER SERVICE QUALITY CONTROL***

...OBSERVATIONS IN AND NEAR THE EASTERN PANHANDLE OF NEBRASKA...

CITY           SKY/WX    TMP DP  RH WIND       PRES   REMARKS
PINE RIDGE     SUNNY     88  55  32 E10       29.98F
CHADRON        SUNNY     91  57  31 NE10      29.97S
ALLIANCE       MOSUNNY   91  52  26 E8        29.98F
SIDNEY         MOSUNNY   92  46  20 E8        30.02F
BIG SPRINGS      N/A     93  63  36 E10         N/A  HX  94
$$

...OBSERVATIONS IN NORTH CENTRAL NEBRASKA...

CITY           SKY/WX    TMP DP  RH WIND       PRES   REMARKS
THEDFORD       MOSUNNY   95  60  31 NE5       29.93S HX  95
AINSWORTH      SUNNY     87  60  40 NE10G16   29.94R
O`NEILL        SUNNY     89  61  38 NE10      29.90S
ORD            SUNNY     96  69  41 NE5       29.85F HX 102
BROKEN BOW     SUNNY     96  54  24 W3        29.89F HX  94
SPRINGVIEW       N/A     88  63  42 N3G14       N/A
CHAMBERS         N/A     90  65  43 E3G12       N/A  HX  92
EWING            N/A     89  73  59 NE3         N/A  HX  97
$$

...OBSERVATIONS IN SOUTHWEST NEBRASKA AND FAR NORTHEAST COLORADO...

CITY           SKY/WX    TMP DP  RH WIND       PRES   REMARKS
WRAY           FAIR      98  46  16 SE8       29.98S HX  94
HOLYOKE        FAIR      99  39  12 SE7       29.97F HX  94
IMPERIAL       SUNNY     95  56  26 E8        29.94F HX  93
OGALLALA       SUNNY     91  62  36 SE5       29.95F HX  92
NORTH PLATTE   MOSUNNY   95  59  30 W6        29.91F HX  94
MCCOOK         SUNNY     97  55  24 VRB3      29.91F HX  95
LEXINGTON      SUNNY     96  61  31 S8        29.90S HX  96
PAXTON           N/A     92  66  42 SE3         N/A  HX  95
BRADY            N/A     95  68  41 CALM        N/A  HX  99
CALLAWAY         N/A     91  79  67 CALM        N/A  HX 107
$$

...NORTH PLATTE AREA...

CITY           SKY/WX    TMP DP  RH WIND       PRES   REMARKS
AIRPORT        MOSUNNY   95  59  30 W6        29.91F HX  94
DOWNTOWN         N/A     96  59  29 CALM        N/A  HX  95
SANDRIDGE        N/A     96  61  31 MISG        N/A  HX  96
HILLCREST        N/A     94  61  33 NW3         N/A  HX  94
$$

...SOME WEATHER OBSERVATIONS FROM AROUND THE REGION...

CITY           SKY/WX    TMP DP  RH WIND       PRES   REMARKS
DENVER         PTSUNNY   89  37  16 E13G22    30.08R
LARAMIE        PTSUNNY   86  34  15 NE13G20   30.22F
CHEYENNE       TSTM      84  46  26 S15G23    30.16S
SCOTTSBLUFF    MOSUNNY   91  53  27 E5        29.99S
RAPID CITY     SUNNY     84  54  35 NE8       30.01S
PIERRE         SUNNY     87  53  31 NE9       29.90S
WINNER         FAIR      89  60  37 NE13      29.92R
SIOUX FALLS    MOSUNNY   85  63  47 N15       29.84R
OMAHA          MOSUNNY   96  72  45 SW13      29.80F HX 104
GRAND ISLAND   SUNNY     95  68  41 W12       29.88S HX  99
KANSAS CITY    MOSUNNY   89  70  53 SW12      29.89F HX  94
WICHITA        MOSUNNY   90  68  48 S17       29.91F HX  94
HAYS           MOSUNNY   93  64  38 SE5       29.91S HX  95
LIBERAL        MOSUNNY   90  66  45 SE5       29.95F HX  92
GOODLAND       SUNNY     94  47  20 CALM      29.99S HX  90
$$



USA.gov is the U.S. government's official web portal to all federal, state and local government web resources and services.